User: anonymous   Login
Location: Limerick
(52.6800°N, 8.6400°W)
Time: 12:56:59
(UTC+01:00)
Language:

Sapphire - Orbit

View from above orbital plane
View from above orbital plane
View from above satellite
View from above satellite

Ground track
Ground track

The orbit data is extracted from the following two-line orbital elements,

1 26932U 01043D   16239.11501237 -.00000046  00000-0  14106-4 0  9998
2 26932  67.0564 134.4257 0006055 245.5152 114.5318 14.30221254778175
Epoch (UTC): 26 August 2016 02:45:37
Eccentricity: 0.0006055
inclination: 67.0564°
perigee height: 786 km
apogee height: 795 km
right ascension of ascending node: 134.4257°
argument of perigee: 245.5152°
revolutions per day: 14.30221254
mean anomaly at epoch: 114.5318°
orbit number at epoch: 77817

The dashed part of the orbit path shows where the satellite is in the earth's shadow,  

DLR